Location: Aufkirchen
(47.9603°N, 11.3653°E)
Time: 07:33:51
(UTC+01:00)

Transit 4A - Pass Details

Date: 05 December 2020
Orbit: 864 x 981 km, 66.8° (Epoch: 16 January)

Event Time Altitude Azimuth Distance (km) Brightness Sun altitude
Rises 11:38:59 0° 311° (NW) 3,691 10.6 19.3°
Reaches altitude 10° 11:43:02 10° 336° (NNW) 2,740 9.9 19.4°
Maximum altitude 11:46:21 14° 7° (N) 2,430 9.6 19.5°
Drops below altitude 10° 11:49:39 10° 39° (NE) 2,722 10.0 19.5°
Sets 11:53:39 0° 63° (ENE) 3,649 10.8 19.5°
